| time (UTC) | temp F | wind direction | speed MPH | gust MPH | rain 1hr in | rain 24hr in | rain mn in | humidity % | barometer mb |
| 20260906124505 | 65 | 209 | 0.0 | 2.0 | 0.00 | 0.00 | 0.00 | 94 | 1020.5 |
| 20260906124003 | 65 | 344 | 1.0 | 3.0 | 0.00 | 0.00 | 0.00 | 94 | 1020.4 |
| 20260906123502 | 65 | 167 | 1.0 | 3.0 | 0.00 | 0.00 | 0.00 | 94 | 1020.3 |
| 20260906123006 | 65 | 132 | 0.0 | 2.0 | 0.00 | 0.00 | 0.00 | 94 | 1020.2 |
| 20260906122504 | 64 | 254 | 0.0 | 2.0 | 0.00 | 0.00 | 0.00 | 94 | 1020.1 |
| 20260906122004 | 64 | 34 | 0.0 | 2.0 | 0.00 | 0.00 | 0.00 | 94 | 1020.2 |
| 20260906121510 | 64 | 48 | 0.0 | 2.0 | 0.00 | 0.00 | 0.00 | 94 | 1020.3 |
| 20260906121003 | 64 | 14 | 1.0 | 2.0 | 0.00 | 0.00 | 0.00 | 94 | 1020.3 |
| 20260906120506 | 64 | 25 | 0.0 | 2.0 | 0.00 | 0.00 | 0.00 | 94 | 1020.3 |
| 20260906120017 | 64 | 22 | 1.0 | 2.0 | 0.00 | 0.00 | 0.00 | 94 | 1020.2 |
| 20260906115509 | 64 | 19 | 1.0 | 2.0 | 0.00 | 0.00 | 0.00 | 94 | 1020.1 |
| 20260906115009 | 64 | 28 | 1.0 | 2.0 | 0.00 | 0.00 | 0.00 | 94 | 1020.0 |
| 20260906114525 | 63 | 55 | 0.0 | 2.0 | 0.00 | 0.00 | 0.00 | 94 | 1019.9 |
| 20260906114013 | 63 | 55 | 0.0 | 2.0 | 0.00 | 0.00 | 0.00 | 94 | 1019.8 |
| 20260906113502 | 63 | 80 | 0.0 | 2.0 | 0.00 | 0.00 | 0.00 | 94 | 1019.7 |
| 20260906113008 | 63 | 149 | 0.0 | 2.0 | 0.00 | 0.00 | 0.00 | 94 | 1019.6 |
| 20260906112505 | 63 | 149 | 0.0 | 2.0 | 0.00 | 0.00 | 0.00 | 93 | 1019.5 |
| 20260906112003 | 63 | 151 | 0.0 | 2.0 | 0.00 | 0.00 | 0.00 | 93 | 1019.5 |
| 20260906111509 | 63 | 151 | 0.0 | 2.0 | 0.00 | 0.00 | 0.00 | 93 | 1019.5 |
| 20260906111003 | 63 | 34 | 0.0 | 2.0 | 0.00 | 0.00 | 0.00 | 94 | 1019.4 |
| 20260906110507 | 63 | 17 | 1.0 | 2.0 | 0.00 | 0.00 | 0.00 | 94 | 1019.5 |
| 20260906110016 | 63 | 22 | 0.0 | 2.0 | 0.00 | 0.00 | 0.00 | 93 | 1019.4 |
| 20260906105508 | 63 | 360 | 0.0 | 2.0 | 0.00 | 0.00 | 0.00 | 93 | 1019.3 |
| 20260906105012 | 63 | 24 | 0.0 | 2.0 | 0.00 | 0.00 | 0.00 | 93 | 1019.3 |
| 20260906104538 | 62 | 9 | 0.0 | 2.0 | 0.00 | 0.00 | 0.00 | 93 | 1019.4 |
| 20260906104011 | 62 | 9 | 0.0 | 2.0 | 0.00 | 0.00 | 0.00 | 93 | 1019.3 |
| 20260906103512 | 62 | 9 | 0.0 | 2.0 | 0.00 | 0.00 | 0.00 | 93 | 1019.3 |
| 20260906103041 | 62 | 9 | 0.0 | 1.0 | 0.00 | 0.00 | 0.00 | 92 | 1019.3 |
| 20260906102504 | 62 | 9 | 0.0 | 1.0 | 0.00 | 0.00 | 0.00 | 92 | 1019.3 |
| 20260906102006 | 62 | 9 | 0.0 | 1.0 | 0.00 | 0.00 | 0.00 | 92 | 1019.3 |
| 20260906101508 | 62 | 9 | 0.0 | 0.0 | 0.00 | 0.00 | 0.00 | 92 | 1019.4 |
| 20260906101003 | 62 | 9 | 0.0 | 0.0 | 0.00 | 0.00 | 0.00 | 92 | 1019.4 |
| 20260906100503 | 62 | 9 | 0.0 | 0.0 | 0.00 | 0.00 | 0.00 | 91 | 1019.3 |
| 20260906100023 | 62 | 9 | 0.0 | 2.0 | 0.00 | 0.00 | 0.00 | 91 | 1019.3 |
| 20260906095504 | 63 | 9 | 0.0 | 2.0 | 0.00 | 0.00 | 0.00 | 92 | 1019.3 |
| 20260906095011 | 63 | 9 | 0.0 | 2.0 | 0.00 | 0.00 | 0.00 | 92 | 1019.2 |
| 20260906094522 | 63 | 9 | 0.0 | 2.0 | 0.00 | 0.00 | 0.00 | 92 | 1019.2 |
| 20260906094009 | 63 | 9 | 1.0 | 2.0 | 0.00 | 0.00 | 0.00 | 92 | 1019.3 |
| 20260906093512 | 63 | 19 | 0.0 | 2.0 | 0.00 | 0.00 | 0.00 | 92 | 1019.2 |
| 20260906093037 | 63 | 19 | 1.0 | 2.0 | 0.00 | 0.00 | 0.00 | 92 | 1019.3 |
| 20260906092512 | 63 | 30 | 1.0 | 2.0 | 0.00 | 0.00 | 0.00 | 92 | 1019.2 |
| 20260906092013 | 63 | 5 | 0.0 | 2.0 | 0.00 | 0.00 | 0.00 | 92 | 1019.1 |
| 20260906091519 | 63 | 5 | 0.0 | 2.0 | 0.00 | 0.00 | 0.00 | 92 | 1019.0 |
| 20260906091004 | 63 | 5 | 0.0 | 2.0 | 0.00 | 0.00 | 0.00 | 92 | 1018.9 |
| 20260906090503 | 63 | 352 | 1.0 | 2.0 | 0.00 | 0.00 | 0.00 | 92 | 1018.9 |
| 20260906090016 | 63 | 5 | 1.0 | 2.0 | 0.00 | 0.00 | 0.00 | 92 | 1019.0 |
| 20260906085506 | 63 | 18 | 0.0 | 2.0 | 0.00 | 0.00 | 0.00 | 92 | 1019.1 |
| 20260906085008 | 63 | 18 | 0.0 | 2.0 | 0.00 | 0.00 | 0.00 | 92 | 1019.2 |
| 20260906084516 | 63 | 18 | 1.0 | 2.0 | 0.00 | 0.00 | 0.00 | 92 | 1019.1 |
| 20260906084010 | 63 | 351 | 1.0 | 2.0 | 0.00 | 0.00 | 0.00 | 92 | 1019.1 |
| 20260906083510 | 63 | 16 | 1.0 | 2.0 | 0.00 | 0.00 | 0.00 | 92 | 1019.1 |
| 20260906083026 | 63 | 19 | 1.0 | 2.0 | 0.00 | 0.00 | 0.00 | 92 | 1019.1 |
| 20260906082513 | 63 | 22 | 1.0 | 2.0 | 0.00 | 0.00 | 0.00 | 92 | 1019.2 |
| 20260906082013 | 63 | 21 | 1.0 | 2.0 | 0.00 | 0.00 | 0.00 | 91 | 1019.2 |
| 20260906081526 | 63 | 360 | 1.0 | 2.0 | 0.00 | 0.00 | 0.00 | 91 | 1019.1 |
| 20260906081012 | 63 | 5 | 0.0 | 2.0 | 0.00 | 0.00 | 0.00 | 91 | 1019.0 |
| 20260906080503 | 63 | 5 | 1.0 | 2.0 | 0.00 | 0.00 | 0.00 | 91 | 1018.9 |
| 20260906080010 | 63 | 351 | 1.0 | 2.0 | 0.00 | 0.00 | 0.00 | 91 | 1019.0 |
| 20260906075503 | 63 | 329 | 0.0 | 2.0 | 0.00 | 0.00 | 0.00 | 91 | 1019.0 |
| 20260906075006 | 64 | 329 | 0.0 | 2.0 | 0.00 | 0.00 | 0.00 | 91 | 1019.1 |
| 20260906074514 | 64 | 9 | 0.0 | 2.0 | 0.00 | 0.00 | 0.00 | 91 | 1019.0 |
| 20260906074008 | 64 | 9 | 1.0 | 2.0 | 0.00 | 0.00 | 0.00 | 91 | 1018.9 |
| 20260906073509 | 64 | 352 | 1.0 | 2.0 | 0.00 | 0.00 | 0.00 | 91 | 1019.0 |
| 20260906073024 | 64 | 349 | 1.0 | 2.0 | 0.00 | 0.00 | 0.00 | 92 | 1018.9 |
| 20260906072509 | 64 | 19 | 1.0 | 2.0 | 0.00 | 0.00 | 0.00 | 92 | 1018.9 |
| 20260906072009 | 64 | 352 | 1.0 | 2.0 | 0.00 | 0.00 | 0.00 | 92 | 1018.9 |
| 20260906071530 | 63 | 13 | 1.0 | 2.0 | 0.00 | 0.00 | 0.00 | 92 | 1018.9 |
| 20260906071012 | 63 | 17 | 1.0 | 2.0 | 0.00 | 0.00 | 0.00 | 91 | 1019.0 |
| 20260906070513 | 64 | 19 | 1.0 | 2.0 | 0.00 | 0.00 | 0.00 | 92 | 1019.0 |
| 20260906070029 | 64 | 352 | 0.0 | 2.0 | 0.00 | 0.00 | 0.00 | 92 | 1018.9 |
| 20260906065505 | 64 | 352 | 0.0 | 2.0 | 0.00 | 0.00 | 0.00 | 92 | 1018.9 |
| 20260906065006 | 63 | 352 | 0.0 | 2.0 | 0.00 | 0.00 | 0.00 | 92 | 1019.0 |
| 20260906064514 | 63 | 5 | 1.0 | 2.0 | 0.00 | 0.00 | 0.00 | 92 | 1019.1 |
| 20260906064011 | 63 | 342 | 0.0 | 2.0 | 0.00 | 0.00 | 0.00 | 92 | 1019.0 |
| 20260906063508 | 63 | 342 | 0.0 | 2.0 | 0.00 | 0.00 | 0.00 | 92 | 1019.0 |
| 20260906063019 | 63 | 352 | 0.0 | 2.0 | 0.00 | 0.00 | 0.00 | 92 | 1019.1 |
| 20260906062511 | 63 | 352 | 0.0 | 2.0 | 0.00 | 0.00 | 0.00 | 91 | 1019.1 |
| 20260906062012 | 63 | 360 | 1.0 | 2.0 | 0.00 | 0.00 | 0.00 | 91 | 1019.1 |
| 20260906061527 | 63 | 15 | 0.0 | 2.0 | 0.00 | 0.00 | 0.00 | 91 | 1019.1 |
| 20260906061012 | 63 | 17 | 1.0 | 2.0 | 0.00 | 0.00 | 0.00 | 91 | 1018.9 |
| 20260906060514 | 63 | 17 | 0.0 | 1.0 | 0.00 | 0.00 | 0.00 | 90 | 1018.9 |
| 20260906060033 | 63 | 17 | 0.0 | 2.0 | 0.00 | 0.00 | 0.00 | 90 | 1019.0 |
| 20260906055515 | 64 | 17 | 0.0 | 2.0 | 0.00 | 0.00 | 0.00 | 90 | 1018.9 |
| 20260906055017 | 64 | 17 | 0.0 | 2.0 | 0.00 | 0.00 | 0.00 | 90 | 1018.9 |
| 20260906054513 | 64 | 5 | 0.0 | 2.0 | 0.00 | 0.00 | 0.00 | 90 | 1018.9 |
| 20260906054007 | 64 | 5 | 0.0 | 2.0 | 0.00 | 0.00 | 0.00 | 90 | 1018.9 |
| 20260906053507 | 64 | 5 | 0.0 | 2.0 | 0.00 | 0.00 | 0.00 | 90 | 1019.0 |
| 20260906053020 | 64 | 5 | 0.0 | 2.0 | 0.00 | 0.00 | 0.00 | 90 | 1019.0 |
| 20260906052508 | 64 | 9 | 0.0 | 2.0 | 0.00 | 0.00 | 0.00 | 90 | 1018.9 |
| 20260906052010 | 64 | 9 | 0.0 | 2.0 | 0.00 | 0.00 | 0.00 | 90 | 1018.9 |
| 20260906051532 | 64 | 9 | 0.0 | 2.0 | 0.00 | 0.00 | 0.00 | 89 | 1018.9 |
| 20260906051010 | 64 | 9 | 1.0 | 1.0 | 0.00 | 0.00 | 0.00 | 89 | 1018.8 |
| 20260906050511 | 65 | 9 | 1.0 | 2.0 | 0.00 | 0.00 | 0.00 | 89 | 1018.7 |
| 20260906050038 | 65 | 24 | 1.0 | 2.0 | 0.00 | 0.00 | 0.00 | 89 | 1018.6 |
| 20260906045512 | 65 | 9 | 1.0 | 2.0 | 0.00 | 0.00 | 0.00 | 89 | 1018.7 |
| 20260906045016 | 65 | 58 | 0.0 | 3.0 | 0.00 | 0.00 | 0.00 | 89 | 1018.7 |
| 20260906044530 | 65 | 9 | 1.0 | 3.0 | 0.00 | 0.00 | 0.00 | 89 | 1018.6 |
| 20260906044017 | 65 | 28 | 1.0 | 3.0 | 0.00 | 0.00 | 0.00 | 89 | 1018.6 |
| 20260906043506 | 65 | 24 | 1.0 | 3.0 | 0.00 | 0.00 | 0.00 | 89 | 1018.7 |
| 20260906043012 | 65 | 26 | 1.0 | 3.0 | 0.00 | 0.00 | 0.00 | 88 | 1018.7 |
| 20260906042508 | 65 | 38 | 1.0 | 4.0 | 0.00 | 0.00 | 0.00 | 88 | 1018.6 |
| 20260906042010 | 65 | 28 | 1.0 | 4.0 | 0.00 | 0.00 | 0.00 | 88 | 1018.4 |
| 20260906041525 | 65 | 24 | 2.0 | 4.0 | 0.00 | 0.00 | 0.00 | 88 | 1018.4 |
| 20260906041012 | 65 | 25 | 1.0 | 4.0 | 0.00 | 0.00 | 0.00 | 87 | 1018.3 |
| 20260906040513 | 65 | 32 | 2.0 | 4.0 | 0.00 | 0.00 | 0.00 | 87 | 1018.3 |
| 20260906040036 | 65 | 44 | 2.0 | 3.0 | 0.00 | 0.00 | 0.00 | 87 | 1018.2 |
| 20260906035514 | 65 | 26 | 2.0 | 3.0 | 0.00 | 0.00 | 0.00 | 86 | 1018.2 |
| 20260906035016 | 65 | 9 | 2.0 | 5.0 | 0.00 | 0.00 | 0.00 | 86 | 1018.3 |
| 20260906034545 | 66 | 24 | 2.0 | 5.0 | 0.00 | 0.00 | 0.00 | 86 | 1018.3 |
| 20260906034014 | 66 | 35 | 2.0 | 4.0 | 0.00 | 0.00 | 0.00 | 86 | 1018.3 |
| 20260906033519 | 66 | 48 | 1.0 | 3.0 | 0.00 | 0.00 | 0.00 | 86 | 1018.2 |
| 20260906033033 | 66 | 41 | 1.0 | 3.0 | 0.00 | 0.00 | 0.00 | 86 | 1018.2 |
| 20260906032508 | 66 | 34 | 1.0 | 3.0 | 0.00 | 0.00 | 0.00 | 86 | 1018.3 |
| 20260906032008 | 66 | 19 | 1.0 | 4.0 | 0.00 | 0.00 | 0.00 | 86 | 1018.3 |
| 20260906031552 | 67 | 38 | 1.0 | 4.0 | 0.00 | 0.00 | 0.00 | 87 | 1018.3 |
| 20260906031012 | 67 | 9 | 1.0 | 3.0 | 0.00 | 0.00 | 0.00 | 87 | 1018.2 |
| 20260906030511 | 67 | 17 | 1.0 | 3.0 | 0.00 | 0.00 | 0.00 | 87 | 1018.2 |
| 20260906030026 | 67 | 11 | 1.0 | 5.0 | 0.00 | 0.00 | 0.00 | 87 | 1018.2 |
| 20260906025517 | 67 | 360 | 2.0 | 5.0 | 0.00 | 0.00 | 0.00 | 86 | 1018.2 |
| 20260906025015 | 67 | 25 | 1.0 | 5.0 | 0.00 | 0.00 | 0.00 | 86 | 1018.3 |
| 20260906024551 | 67 | 23 | 2.0 | 5.0 | 0.00 | 0.00 | 0.00 | 86 | 1018.2 |
| 20260906024017 | 67 | 26 | 1.0 | 4.0 | 0.00 | 0.00 | 0.00 | 86 | 1018.0 |
| 20260906023520 | 68 | 9 | 1.0 | 4.0 | 0.00 | 0.00 | 0.00 | 86 | 1018.0 |
| 20260906023029 | 68 | 22 | 1.0 | 8.0 | 0.00 | 0.00 | 0.00 | 85 | 1018.0 |
| 20260906022517 | 68 | 19 | 2.0 | 8.0 | 0.00 | 0.00 | 0.00 | 85 | 1017.9 |
| 20260906022014 | 68 | 19 | 3.0 | 8.0 | 0.00 | 0.00 | 0.00 | 85 | 1017.8 |
| 20260906021517 | 68 | 30 | 2.0 | 6.0 | 0.00 | 0.00 | 0.00 | 85 | 1017.8 |
| 20260906021008 | 68 | 15 | 2.0 | 6.0 | 0.00 | 0.00 | 0.00 | 85 | 1017.8 |
| 20260906020511 | 68 | 24 | 2.0 | 5.0 | 0.00 | 0.00 | 0.00 | 85 | 1017.8 |
| 20260906020023 | 68 | 352 | 1.0 | 4.0 | 0.00 | 0.00 | 0.00 | 85 | 1017.9 |
| 20260906015513 | 69 | 57 | 0.0 | 4.0 | 0.00 | 0.00 | 0.00 | 85 | 1017.9 |
| 20260906015012 | 69 | 5 | 1.0 | 4.0 | 0.00 | 0.00 | 0.00 | 85 | 1017.8 |
| 20260906014527 | 69 | 35 | 2.0 | 7.0 | 0.00 | 0.00 | 0.00 | 84 | 1017.7 |
| 20260906014015 | 69 | 24 | 3.0 | 7.0 | 0.00 | 0.00 | 0.00 | 83 | 1017.7 |
| 20260906013514 | 70 | 12 | 3.0 | 9.0 | 0.00 | 0.00 | 0.00 | 83 | 1017.7 |
| 20260906013033 | 70 | 19 | 4.0 | 9.0 | 0.00 | 0.00 | 0.00 | 82 | 1017.8 |
| 20260906012516 | 70 | 19 | 6.0 | 9.0 | 0.00 | 0.00 | 0.00 | 82 | 1017.8 |
| 20260906012016 | 70 | 35 | 5.0 | 11.0 | 0.00 | 0.00 | 0.00 | 83 | 1017.9 |
| 20260906011533 | 70 | 22 | 4.0 | 11.0 | 0.00 | 0.00 | 0.00 | 84 | 1017.9 |
| 20260906011019 | 70 | 28 | 5.0 | 9.0 | 0.00 | 0.00 | 0.00 | 84 | 1017.8 |
| 20260906010504 | 70 | 19 | 2.0 | 7.0 | 0.00 | 0.00 | 0.00 | 84 | 1018.0 |
| 20260906010026 | 70 | 46 | 3.0 | 7.0 | 0.00 | 0.00 | 0.00 | 84 | 1017.9 |
| 20260906005504 | 70 | 38 | 3.0 | 8.0 | 0.00 | 0.00 | 0.00 | 84 | 1017.9 |
| 20260906005002 | 70 | 29 | 2.0 | 8.0 | 0.00 | 0.00 | 0.00 | 83 | 1018.1 |
| 20260906004503 | 70 | 348 | 2.0 | 11.0 | 0.00 | 0.00 | 0.00 | 84 | 1018.0 |
| 20260906004003 | 70 | 322 | 4.0 | 11.0 | 0.00 | 0.00 | 0.00 | 83 | 1018.0 |
| 20260906003503 | 70 | 39 | 4.0 | 8.0 | 0.00 | 0.00 | 0.00 | 84 | 1018.0 |
| 20260906003007 | 70 | 9 | 4.0 | 8.0 | 0.00 | 0.00 | 0.00 | 84 | 1017.9 |
| 20260906002504 | 70 | 57 | 2.0 | 8.0 | 0.00 | 0.00 | 0.00 | 85 | 1017.9 |
| 20260906002005 | 70 | 32 | 4.0 | 10.0 | 0.00 | 0.00 | 0.00 | 84 | 1017.9 |
| 20260906001510 | 70 | 352 | 4.0 | 10.0 | 0.00 | 0.00 | 0.00 | 84 | 1017.9 |
| 20260906001004 | 70 | 33 | 4.0 | 10.0 | 0.00 | 0.00 | 0.00 | 84 | 1017.8 |
| 20260906000506 | 71 | 29 | 3.0 | 9.0 | 0.00 | 0.00 | 0.00 | 84 | 1017.8 |
| 20260906000012 | 71 | 39 | 5.0 | 9.0 | 0.00 | 0.00 | 0.00 | 84 | 1017.8 |
| 20260905235504 | 71 | 21 | 4.0 | 6.0 | 0.00 | 0.00 | 0.00 | 85 | 1017.8 |
| 20260905235003 | 71 | 18 | 3.0 | 7.0 | 0.00 | 0.00 | 0.00 | 84 | 1017.7 |
| 20260905234509 | 71 | 38 | 3.0 | 8.0 | 0.00 | 0.00 | 0.00 | 84 | 1017.7 |
| 20260905234003 | 72 | 22 | 3.0 | 8.0 | 0.00 | 0.00 | 0.00 | 84 | 1017.9 |
| 20260905233504 | 72 | 51 | 2.0 | 7.0 | 0.00 | 0.00 | 0.00 | 84 | 1017.9 |
| 20260905233005 | 72 | 28 | 4.0 | 8.0 | 0.00 | 0.00 | 0.00 | 83 | 1017.9 |
| 20260905232504 | 72 | 46 | 4.0 | 9.0 | 0.00 | 0.00 | 0.00 | 82 | 1017.9 |
| 20260905232004 | 72 | 27 | 5.0 | 9.0 | 0.00 | 0.00 | 0.00 | 82 | 1017.9 |
| 20260905231509 | 73 | 26 | 4.0 | 8.0 | 0.00 | 0.00 | 0.00 | 82 | 1017.9 |
| 20260905231005 | 73 | 44 | 5.0 | 8.0 | 0.00 | 0.00 | 0.00 | 81 | 1017.8 |
| 20260905230506 | 73 | 19 | 4.0 | 8.0 | 0.00 | 0.00 | 0.00 | 82 | 1017.7 |
| 20260905230024 | 73 | 15 | 4.0 | 8.0 | 0.00 | 0.00 | 0.00 | 82 | 1017.7 |
| 20260905225506 | 73 | 32 | 3.0 | 10.0 | 0.00 | 0.00 | 0.00 | 82 | 1017.5 |
| 20260905225006 | 73 | 352 | 2.0 | 10.0 | 0.00 | 0.00 | 0.00 | 82 | 1017.5 |
| 20260905224518 | 73 | 24 | 4.0 | 10.0 | 0.00 | 0.00 | 0.00 | 81 | 1017.4 |
| 20260905224003 | 73 | 96 | 2.0 | 8.0 | 0.00 | 0.00 | 0.00 | 82 | 1017.4 |
| 20260905223503 | 73 | 24 | 3.0 | 10.0 | 0.00 | 0.00 | 0.00 | 82 | 1017.6 |
| 20260905223006 | 73 | 352 | 3.0 | 10.0 | 0.00 | 0.00 | 0.00 | 81 | 1017.6 |
| 20260905222506 | 73 | 52 | 5.0 | 9.0 | 0.00 | 0.00 | 0.00 | 81 | 1017.5 |
| 20260905222003 | 74 | 53 | 2.0 | 9.0 | 0.00 | 0.00 | 0.00 | 81 | 1017.6 |
| 20260905221508 | 74 | 19 | 4.0 | 9.0 | 0.00 | 0.00 | 0.00 | 81 | 1017.5 |
| 20260905221005 | 74 | 9 | 3.0 | 9.0 | 0.00 | 0.00 | 0.00 | 82 | 1017.4 |
| 20260905220504 | 73 | 360 | 4.0 | 9.0 | 0.00 | 0.00 | 0.00 | 82 | 1017.3 |
| 20260905220012 | 73 | 32 | 3.0 | 8.0 | 0.00 | 0.00 | 0.00 | 82 | 1017.3 |
| 20260905215507 | 73 | 28 | 3.0 | 12.0 | 0.00 | 0.00 | 0.00 | 82 | 1017.2 |
| 20260905215007 | 73 | 13 | 7.0 | 12.0 | 0.00 | 0.00 | 0.00 | 81 | 1017.1 |
| 20260905214512 | 74 | 25 | 5.0 | 11.0 | 0.00 | 0.00 | 0.00 | 81 | 1017.1 |
| 20260905214007 | 74 | 17 | 6.0 | 11.0 | 0.00 | 0.00 | 0.00 | 81 | 1017.0 |
| 20260905213507 | 74 | 27 | 7.0 | 12.0 | 0.00 | 0.00 | 0.00 | 80 | 1017.2 |
| 20260905213011 | 74 | 17 | 6.0 | 15.0 | 0.00 | 0.00 | 0.00 | 81 | 1017.2 |
| 20260905212507 | 74 | 34 | 7.0 | 15.0 | 0.00 | 0.00 | 0.00 | 80 | 1017.1 |
| 20260905212003 | 75 | 53 | 8.0 | 14.0 | 0.00 | 0.00 | 0.00 | 80 | 1016.9 |
| 20260905211515 | 75 | 61 | 7.0 | 14.0 | 0.00 | 0.00 | 0.00 | 79 | 1017.0 |
| 20260905211003 | 76 | 34 | 6.0 | 14.0 | 0.00 | 0.00 | 0.00 | 78 | 1017.0 |
| 20260905210503 | 75 | 15 | 6.0 | 11.0 | 0.00 | 0.00 | 0.00 | 79 | 1017.1 |
| 20260905210010 | 75 | 10 | 5.0 | 11.0 | 0.00 | 0.00 | 0.00 | 79 | 1017.1 |
| 20260905205503 | 76 | 49 | 7.0 | 10.0 | 0.00 | 0.00 | 0.00 | 79 | 1017.0 |
| 20260905205006 | 76 | 19 | 3.0 | 10.0 | 0.00 | 0.00 | 0.00 | 79 | 1017.0 |
| 20260905204511 | 76 | 352 | 5.0 | 10.0 | 0.00 | 0.00 | 0.00 | 78 | 1017.1 |
| 20260905204007 | 76 | 37 | 6.0 | 11.0 | 0.00 | 0.00 | 0.00 | 79 | 1017.2 |
| 20260905203506 | 76 | 61 | 3.0 | 11.0 | 0.00 | 0.00 | 0.00 | 80 | 1017.2 |
| 20260905203015 | 76 | 5 | 4.0 | 12.0 | 0.00 | 0.00 | 0.00 | 79 | 1017.2 |
| 20260905202507 | 76 | 20 | 6.0 | 12.0 | 0.00 | 0.00 | 0.00 | 79 | 1017.2 |
| 20260905202006 | 76 | 339 | 4.0 | 12.0 | 0.00 | 0.00 | 0.00 | 79 | 1017.2 |
| 20260905201514 | 76 | 9 | 5.0 | 13.0 | 0.00 | 0.00 | 0.00 | 79 | 1017.2 |
| 20260905201003 | 76 | 12 | 7.0 | 13.0 | 0.00 | 0.00 | 0.00 | 78 | 1017.1 |
| 20260905200506 | 76 | 37 | 5.0 | 9.0 | 0.00 | 0.00 | 0.00 | 81 | 1017.1 |
| 20260905200009 | 75 | 46 | 3.0 | 11.0 | 0.00 | 0.00 | 0.00 | 81 | 1017.1 |
| 20260905195506 | 75 | 29 | 5.0 | 14.0 | 0.00 | 0.00 | 0.00 | 81 | 1017.1 |
| 20260905195005 | 76 | 62 | 8.0 | 14.0 | 0.00 | 0.00 | 0.00 | 80 | 1017.1 |
| 20260905194513 | 77 | 19 | 6.0 | 13.0 | 0.00 | 0.00 | 0.00 | 80 | 1017.1 |
| 20260905194008 | 78 | 115 | 4.0 | 11.0 | 0.00 | 0.00 | 0.00 | 78 | 1017.2 |
| 20260905193508 | 78 | 36 | 6.0 | 11.0 | 0.00 | 0.00 | 0.00 | 77 | 1017.2 |
| 20260905193015 | 78 | 24 | 6.0 | 11.0 | 0.00 | 0.00 | 0.00 | 76 | 1017.1 |
| 20260905192506 | 78 | 336 | 7.0 | 11.0 | 0.00 | 0.00 | 0.00 | 76 | 1017.1 |
| 20260905192008 | 78 | 352 | 6.0 | 12.0 | 0.00 | 0.00 | 0.00 | 76 | 1017.1 |
| 20260905191516 | 78 | 26 | 7.0 | 12.0 | 0.00 | 0.00 | 0.00 | 77 | 1017.1 |
| 20260905191008 | 78 | 51 | 3.0 | 12.0 | 0.00 | 0.00 | 0.00 | 76 | 1017.0 |
| 20260905190505 | 78 | 38 | 6.0 | 11.0 | 0.00 | 0.00 | 0.00 | 75 | 1017.0 |
| 20260905190008 | 79 | 32 | 5.0 | 11.0 | 0.00 | 0.00 | 0.00 | 76 | 1017.1 |
| 20260905185509 | 78 | 36 | 5.0 | 10.0 | 0.00 | 0.00 | 0.00 | 75 | 1017.2 |
| 20260905185005 | 79 | 49 | 3.0 | 8.0 | 0.00 | 0.00 | 0.00 | 75 | 1017.1 |
| 20260905184514 | 78 | 22 | 4.0 | 8.0 | 0.00 | 0.00 | 0.00 | 75 | 1017.1 |
| 20260905184006 | 78 | 360 | 4.0 | 7.0 | 0.00 | 0.00 | 0.00 | 75 | 1017.2 |
| 20260905183506 | 78 | 37 | 3.0 | 7.0 | 0.00 | 0.00 | 0.00 | 76 | 1017.1 |
| 20260905183024 | 78 | 43 | 4.0 | 7.0 | 0.00 | 0.00 | 0.00 | 75 | 1017.2 |
| 20260905182508 | 78 | 42 | 4.0 | 10.0 | 0.00 | 0.00 | 0.00 | 73 | 1017.2 |
| 20260905182008 | 78 | 44 | 5.0 | 12.0 | 0.00 | 0.00 | 0.00 | 73 | 1017.1 |
| 20260905181517 | 79 | 39 | 4.0 | 12.0 | 0.00 | 0.00 | 0.00 | 72 | 1017.1 |
| 20260905181008 | 79 | 350 | 4.0 | 9.0 | 0.00 | 0.00 | 0.00 | 74 | 1017.1 |
| 20260905180507 | 78 | 31 | 5.0 | 9.0 | 0.00 | 0.00 | 0.00 | 74 | 1017.2 |
| 20260905180017 | 78 | 61 | 6.0 | 11.0 | 0.00 | 0.00 | 0.00 | 76 | 1017.2 |
| 20260905175509 | 78 | 28 | 4.0 | 11.0 | 0.00 | 0.00 | 0.00 | 77 | 1017.2 |
| 20260905175004 | 78 | 28 | 7.0 | 11.0 | 0.00 | 0.00 | 0.00 | 75 | 1017.3 |
| 20260905174509 | 78 | 28 | 4.0 | 12.0 | 0.00 | 0.00 | 0.00 | 74 | 1017.2 |
| 20260905174004 | 78 | 9 | 5.0 | 12.0 | 0.00 | 0.00 | 0.00 | 73 | 1017.2 |
| 20260905173508 | 79 | 51 | 4.0 | 10.0 | 0.00 | 0.00 | 0.00 | 73 | 1017.2 |
| 20260905173041 | 78 | 11 | 3.0 | 10.0 | 0.00 | 0.00 | 0.00 | 75 | 1017.2 |
| 20260905172508 | 79 | 38 | 5.0 | 11.0 | 0.00 | 0.00 | 0.00 | 74 | 1017.2 |
| 20260905172008 | 78 | 360 | 5.0 | 11.0 | 0.00 | 0.00 | 0.00 | 74 | 1017.3 |
| 20260905171518 | 78 | 44 | 4.0 | 11.0 | 0.00 | 0.00 | 0.00 | 74 | 1017.3 |
| 20260905171010 | 78 | 21 | 3.0 | 10.0 | 0.00 | 0.00 | 0.00 | 76 | 1017.2 |
| 20260905170510 | 77 | 21 | 6.0 | 10.0 | 0.00 | 0.00 | 0.00 | 77 | 1017.2 |
| 20260905170019 | 77 | 117 | 4.0 | 9.0 | 0.00 | 0.01 | 0.00 | 78 | 1017.3 |
| 20260905165509 | 77 | 15 | 5.0 | 9.0 | 0.00 | 0.01 | 0.00 | 79 | 1017.3 |
| 20260905165009 | 77 | 29 | 3.0 | 7.0 | 0.00 | 0.01 | 0.00 | 80 | 1017.3 |
| 20260905164506 | 76 | 15 | 3.0 | 6.0 | 0.00 | 0.01 | 0.00 | 80 | 1017.2 |
| 20260905164008 | 76 | 9 | 2.0 | 9.0 | 0.00 | 0.01 | 0.00 | 80 | 1017.3 |
| 20260905163505 | 76 | 352 | 2.0 | 9.0 | 0.00 | 0.01 | 0.00 | 79 | 1017.3 |
| 20260905163014 | 76 | 40 | 3.0 | 7.0 | 0.00 | 0.01 | 0.00 | 79 | 1017.3 |
| 20260905162508 | 77 | 31 | 2.0 | 5.0 | 0.00 | 0.01 | 0.00 | 79 | 1017.3 |
| 20260905162006 | 77 | 36 | 1.0 | 5.0 | 0.00 | 0.01 | 0.00 | 80 | 1017.2 |
| 20260905161521 | 76 | 22 | 2.0 | 5.0 | 0.00 | 0.01 | 0.00 | 81 | 1017.2 |
| 20260905161011 | 75 | 17 | 1.0 | 6.0 | 0.00 | 0.01 | 0.00 | 83 | 1017.2 |
| 20260905160508 | 75 | 23 | 3.0 | 9.0 | 0.00 | 0.01 | 0.00 | 83 | 1017.3 |
| 20260905160025 | 75 | 18 | 4.0 | 9.0 | 0.00 | 0.01 | 0.00 | 83 | 1017.3 |
| 20260905155513 | 75 | 15 | 3.0 | 9.0 | 0.00 | 0.01 | 0.00 | 83 | 1017.3 |
| 20260905155014 | 75 | 25 | 4.0 | 9.0 | 0.00 | 0.01 | 0.00 | 82 | 1017.2 |
| 20260905154523 | 75 | 5 | 2.0 | 9.0 | 0.00 | 0.01 | 0.00 | 83 | 1017.2 |
| 20260905154015 | 75 | 42 | 5.0 | 9.0 | 0.00 | 0.01 | 0.00 | 82 | 1017.2 |
| 20260905153504 | 75 | 27 | 3.0 | 10.0 | 0.00 | 0.01 | 0.00 | 82 | 1017.1 |
| 20260905153011 | 76 | 42 | 4.0 | 10.0 | 0.00 | 0.01 | 0.00 | 81 | 1017.2 |
| 20260905152510 | 75 | 360 | 2.0 | 5.0 | 0.00 | 0.01 | 0.00 | 85 | 1017.2 |
| 20260905152007 | 72 | 22 | 2.0 | 5.0 | 0.00 | 0.01 | 0.00 | 89 | 1017.2 |
| 20260905151519 | 72 | 38 | 2.0 | 3.0 | 0.00 | 0.02 | 0.00 | 90 | 1017.2 |
| 20260905151012 | 71 | 346 | 1.0 | 8.0 | 0.00 | 0.03 | 0.00 | 90 | 1017.1 |
| 20260905150512 | 71 | 41 | 3.0 | 8.0 | 0.00 | 0.08 | 0.00 | 90 | 1017.1 |
| 20260905150024 | 71 | 17 | 3.0 | 8.0 | 0.00 | 0.31 | 0.00 | 90 | 1017.1 |
| 20260905145510 | 71 | 31 | 3.0 | 9.0 | 0.00 | 0.42 | 0.00 | 91 | 1017.0 |
| 20260905145009 | 71 | 37 | 3.0 | 10.0 | 0.00 | 0.43 | 0.00 | 91 | 1016.8 |
| 20260905144526 | 71 | 66 | 6.0 | 10.0 | 0.00 | 0.43 | 0.00 | 91 | 1016.8 |
| 20260905144009 | 71 | 49 | 4.0 | 8.0 | 0.00 | 0.43 | 0.00 | 91 | 1016.8 |
| 20260905143509 | 71 | 16 | 2.0 | 8.0 | 0.00 | 0.43 | 0.00 | 91 | 1016.8 |
| 20260905143029 | 71 | 28 | 4.0 | 10.0 | 0.00 | 0.43 | 0.00 | 91 | 1016.7 |
| 20260905142504 | 71 | 55 | 4.0 | 13.0 | 0.00 | 0.43 | 0.00 | 91 | 1016.5 |
| 20260905142004 | 71 | 41 | 7.0 | 13.0 | 0.00 | 0.43 | 0.00 | 91 | 1016.3 |
| 20260905141525 | 71 | 360 | 5.0 | 10.0 | 0.00 | 0.43 | 0.00 | 91 | 1016.4 |
| 20260905141006 | 71 | 200 | 2.0 | 8.0 | 0.00 | 0.43 | 0.00 | 92 | 1016.4 |
| 20260905140511 | 71 | 34 | 4.0 | 8.0 | 0.00 | 0.43 | 0.00 | 92 | 1016.2 |
| 20260905140024 | 70 | 37 | 3.0 | 8.0 | 0.00 | 0.43 | 0.00 | 92 | 1016.3 |
| 20260905135509 | 70 | 17 | 3.0 | 8.0 | 0.00 | 0.43 | 0.00 | 93 | 1016.4 |
| 20260905135014 | 70 | 22 | 3.0 | 7.0 | 0.00 | 0.43 | 0.00 | 93 | 1016.4 |
| 20260905134532 | 70 | 17 | 2.0 | 8.0 | 0.00 | 0.43 | 0.00 | 93 | 1016.4 |
| 20260905134011 | 70 | 19 | 4.0 | 8.0 | 0.00 | 0.43 | 0.00 | 93 | 1016.3 |
| 20260905133512 | 70 | 35 | 3.0 | 8.0 | 0.00 | 0.43 | 0.00 | 93 | 1016.4 |
| 20260905133024 | 70 | 24 | 4.0 | 9.0 | 0.00 | 0.52 | 0.00 | 93 | 1016.4 |
| 20260905132513 | 70 | 24 | 4.0 | 9.0 | 0.00 | 0.52 | 0.00 | 94 | 1016.4 |
| 20260905132012 | 70 | 32 | 3.0 | 7.0 | 0.00 | 0.52 | 0.00 | 94 | 1016.4 |
| 20260905131518 | 70 | 32 | 3.0 | 7.0 | 0.00 | 0.52 | 0.00 | 94 | 1016.5 |
| 20260905131012 | 70 | 352 | 3.0 | 6.0 | 0.00 | 0.52 | 0.00 | 94 | 1016.6 |
| 20260905130509 | 70 | 25 | 3.0 | 6.0 | 0.00 | 0.52 | 0.00 | 94 | 1016.8 |
| 20260905130022 | 70 | 34 | 2.0 | 6.0 | 0.00 | 0.52 | 0.00 | 94 | 1016.7 |
| 20260905125510 | 69 | 24 | 1.0 | 5.0 | 0.00 | 0.52 | 0.00 | 95 | 1016.4 |
| 20260905125012 | 69 | 350 | 1.0 | 11.0 | 0.00 | 0.52 | 0.00 | 95 | 1016.1 |
| 20260905124537 | 69 | 314 | 1.0 | 11.0 | 0.00 | 0.52 | 0.00 | 95 | 1015.9 |